| time (UTC) | temp F | wind direction | speed knots | gust knots | rain 1hr in | rain 24hr in | rain mn in | humidity % | barometer mb |
| 20260904062534 | 65 | 0 | 0.0 | 0.0 | 0.00 | 0.00 | 0.00 | 85 | 1012.7 |
| 20260904062035 | 65 | 0 | 0.0 | 0.0 | 0.00 | 0.00 | 0.00 | 85 | 1012.7 |
| 20260904061553 | 65 | 0 | 0.0 | 0.0 | 0.00 | 0.00 | 0.00 | 85 | 1012.7 |
| 20260904061037 | 65 | 0 | 0.0 | 0.0 | 0.00 | 0.00 | 0.00 | 85 | 1012.7 |
| 20260904060537 | 65 | 0 | 0.0 | 0.0 | 0.00 | 0.00 | 0.00 | 85 | 1012.7 |
| 20260904060054 | 65 | 0 | 0.0 | 0.0 | 0.00 | 0.00 | 0.00 | 85 | 1012.7 |
| 20260904055532 | 65 | 0 | 0.0 | 0.0 | 0.00 | 0.00 | 0.00 | 85 | 1012.7 |
| 20260904055036 | 65 | 0 | 0.0 | 0.9 | 0.00 | 0.00 | 0.00 | 85 | 1012.7 |
| 20260904054600 | 65 | 0 | 0.0 | 0.9 | 0.00 | 0.00 | 0.00 | 85 | 1012.7 |
| 20260904054036 | 65 | 0 | 0.0 | 0.9 | 0.00 | 0.00 | 0.00 | 85 | 1012.7 |
| 20260904053536 | 65 | 0 | 0.0 | 0.0 | 0.00 | 0.00 | 0.00 | 84 | 1012.7 |
| 20260904053059 | 65 | 0 | 0.0 | 0.0 | 0.00 | 0.00 | 0.00 | 84 | 1012.7 |
| 20260904052534 | 66 | 0 | 0.0 | 0.0 | 0.00 | 0.00 | 0.00 | 84 | 1012.8 |
| 20260904052034 | 66 | 0 | 0.0 | 0.0 | 0.00 | 0.00 | 0.00 | 84 | 1012.8 |
| 20260904051607 | 66 | 0 | 0.0 | 0.0 | 0.00 | 0.00 | 0.00 | 84 | 1012.8 |
| 20260904051031 | 66 | 0 | 0.0 | 0.9 | 0.00 | 0.00 | 0.00 | 84 | 1012.8 |
| 20260904050531 | 66 | 0 | 0.0 | 1.7 | 0.00 | 0.00 | 0.00 | 85 | 1012.8 |
| 20260904050142 | 66 | 0 | 0.0 | 1.7 | 0.00 | 0.00 | 0.00 | 84 | 1012.9 |
| 20260904045532 | 66 | 0 | 0.0 | 0.0 | 0.00 | 0.00 | 0.00 | 84 | 1012.8 |
| 20260904045032 | 66 | 0 | 0.0 | 0.9 | 0.00 | 0.00 | 0.00 | 84 | 1012.8 |
| 20260904044602 | 66 | 0 | 0.0 | 0.9 | 0.00 | 0.00 | 0.00 | 84 | 1012.9 |
| 20260904044031 | 66 | 0 | 0.0 | 0.9 | 0.00 | 0.00 | 0.00 | 84 | 1012.9 |
| 20260904043535 | 66 | 0 | 0.0 | 0.9 | 0.00 | 0.00 | 0.00 | 84 | 1012.8 |
| 20260904043055 | 66 | 0 | 0.0 | 0.9 | 0.00 | 0.00 | 0.00 | 84 | 1012.8 |
| 20260904042531 | 66 | 0 | 0.0 | 1.7 | 0.00 | 0.00 | 0.00 | 84 | 1012.9 |
| 20260904042032 | 66 | 0 | 0.0 | 1.7 | 0.00 | 0.00 | 0.00 | 84 | 1012.9 |
| 20260904041603 | 66 | 0 | 0.0 | 1.7 | 0.00 | 0.00 | 0.00 | 84 | 1012.9 |
| 20260904041030 | 66 | 0 | 0.0 | 1.7 | 0.00 | 0.00 | 0.00 | 84 | 1012.9 |
| 20260904040531 | 66 | 0 | 0.0 | 2.6 | 0.00 | 0.00 | 0.00 | 84 | 1012.9 |
| 20260904040054 | 66 | 217 | 0.9 | 2.6 | 0.00 | 0.00 | 0.00 | 84 | 1012.9 |
| 20260904035532 | 66 | 217 | 0.0 | 2.6 | 0.00 | 0.00 | 0.00 | 83 | 1012.8 |
| 20260904035033 | 66 | 0 | 0.0 | 2.6 | 0.00 | 0.00 | 0.00 | 83 | 1012.7 |
| 20260904034608 | 66 | 217 | 0.0 | 2.6 | 0.00 | 0.00 | 0.00 | 83 | 1012.7 |
| 20260904034035 | 67 | 0 | 0.0 | 1.7 | 0.00 | 0.00 | 0.00 | 83 | 1012.6 |
| 20260904033534 | 67 | 0 | 0.0 | 1.7 | 0.00 | 0.00 | 0.00 | 82 | 1012.6 |
| 20260904033056 | 67 | 0 | 0.0 | 1.7 | 0.00 | 0.00 | 0.00 | 82 | 1012.5 |
| 20260904032530 | 67 | 238 | 0.0 | 1.7 | 0.00 | 0.00 | 0.00 | 82 | 1012.5 |
| 20260904032030 | 67 | 238 | 0.0 | 1.7 | 0.00 | 0.00 | 0.00 | 82 | 1012.4 |
| 20260904031552 | 67 | 0 | 0.0 | 1.7 | 0.00 | 0.00 | 0.00 | 82 | 1012.4 |
| 20260904031030 | 67 | 0 | 0.0 | 2.6 | 0.00 | 0.00 | 0.00 | 82 | 1012.4 |
| 20260904030531 | 67 | 238 | 0.9 | 2.6 | 0.00 | 0.00 | 0.00 | 81 | 1012.3 |
| 20260904030052 | 67 | 238 | 0.0 | 1.7 | 0.00 | 0.00 | 0.00 | 81 | 1012.3 |
| 20260904025531 | 67 | 0 | 0.0 | 2.6 | 0.00 | 0.00 | 0.00 | 81 | 1012.4 |
| 20260904025032 | 68 | 0 | 0.9 | 2.6 | 0.00 | 0.00 | 0.00 | 80 | 1012.3 |
| 20260904024555 | 68 | 0 | 0.0 | 2.6 | 0.00 | 0.00 | 0.00 | 80 | 1012.3 |
| 20260904024033 | 68 | 286 | 0.0 | 1.7 | 0.00 | 0.00 | 0.00 | 80 | 1012.3 |
| 20260904023537 | 68 | 0 | 0.0 | 1.7 | 0.00 | 0.00 | 0.00 | 80 | 1012.4 |
| 20260904023053 | 68 | 250 | 0.0 | 3.5 | 0.00 | 0.00 | 0.00 | 80 | 1012.4 |
| 20260904022532 | 68 | 250 | 0.0 | 3.5 | 0.00 | 0.00 | 0.00 | 79 | 1012.4 |
| 20260904022033 | 69 | 230 | 0.9 | 3.5 | 0.00 | 0.00 | 0.00 | 79 | 1012.4 |
| 20260904021552 | 69 | 286 | 0.9 | 3.5 | 0.00 | 0.00 | 0.00 | 79 | 1012.4 |
| 20260904021035 | 69 | 0 | 0.0 | 2.6 | 0.00 | 0.00 | 0.00 | 79 | 1012.4 |
| 20260904020536 | 69 | 280 | 0.9 | 2.6 | 0.00 | 0.00 | 0.00 | 78 | 1012.3 |
| 20260904015535 | 69 | 310 | 1.7 | 5.2 | 0.00 | 0.00 | 0.00 | 78 | 1012.5 |
| 20260904015035 | 69 | 276 | 0.9 | 5.2 | 0.00 | 0.00 | 0.00 | 78 | 1012.4 |
| 20260904014623 | 69 | 268 | 1.7 | 6.1 | 0.00 | 0.00 | 0.00 | 79 | 1012.4 |
| 20260904014035 | 69 | 313 | 2.6 | 6.1 | 0.00 | 0.00 | 0.00 | 79 | 1012.4 |
| 20260904013535 | 70 | 288 | 1.7 | 7.0 | 0.00 | 0.00 | 0.00 | 79 | 1012.4 |
| 20260904013056 | 70 | 296 | 2.6 | 7.0 | 0.00 | 0.00 | 0.00 | 79 | 1012.5 |
| 20260904012536 | 70 | 323 | 1.7 | 6.1 | 0.00 | 0.00 | 0.00 | 79 | 1012.5 |
| 20260904012039 | 70 | 262 | 1.7 | 5.2 | 0.00 | 0.00 | 0.00 | 79 | 1012.5 |
| 20260904011601 | 70 | 288 | 1.7 | 5.2 | 0.00 | 0.00 | 0.00 | 78 | 1012.5 |
| 20260904011035 | 70 | 286 | 2.6 | 7.8 | 0.00 | 0.00 | 0.00 | 77 | 1012.6 |
| 20260904010538 | 71 | 327 | 2.6 | 7.8 | 0.00 | 0.00 | 0.00 | 77 | 1012.6 |
| 20260904005535 | 71 | 265 | 1.7 | 7.8 | 0.00 | 0.00 | 0.00 | 77 | 1012.7 |
| 20260904005035 | 71 | 308 | 3.5 | 8.7 | 0.00 | 0.00 | 0.00 | 76 | 1012.7 |
| 20260904004559 | 72 | 306 | 2.6 | 8.7 | 0.00 | 0.00 | 0.00 | 75 | 1012.5 |
| 20260904004035 | 72 | 298 | 3.5 | 8.7 | 0.00 | 0.00 | 0.00 | 75 | 1012.5 |
| 20260904003540 | 72 | 309 | 2.6 | 8.7 | 0.00 | 0.00 | 0.00 | 75 | 1012.5 |
| 20260904003109 | 73 | 261 | 3.5 | 8.7 | 0.00 | 0.00 | 0.00 | 74 | 1012.5 |
| 20260904002536 | 73 | 308 | 2.6 | 8.7 | 0.00 | 0.00 | 0.00 | 74 | 1012.5 |
| 20260904002036 | 73 | 304 | 3.5 | 7.8 | 0.00 | 0.00 | 0.00 | 73 | 1012.5 |
| 20260904001604 | 73 | 277 | 4.3 | 8.7 | 0.00 | 0.00 | 0.00 | 73 | 1012.6 |
| 20260904001034 | 73 | 300 | 3.5 | 8.7 | 0.00 | 0.00 | 0.00 | 73 | 1012.6 |
| 20260904000535 | 73 | 275 | 3.5 | 8.7 | 0.00 | 0.00 | 0.00 | 72 | 1012.7 |
| 20260903235535 | 74 | 292 | 4.3 | 8.7 | 0.00 | 0.00 | 0.00 | 72 | 1012.7 |
| 20260903235038 | 74 | 301 | 3.5 | 8.7 | 0.00 | 0.00 | 0.00 | 73 | 1012.6 |
| 20260903234600 | 74 | 309 | 4.3 | 8.7 | 0.00 | 0.00 | 0.00 | 73 | 1012.6 |
| 20260903234035 | 74 | 286 | 4.3 | 9.6 | 0.00 | 0.00 | 0.00 | 72 | 1012.7 |
| 20260903233535 | 74 | 305 | 4.3 | 9.6 | 0.00 | 0.00 | 0.00 | 73 | 1012.6 |
| 20260903233055 | 74 | 256 | 5.2 | 9.6 | 0.00 | 0.00 | 0.00 | 72 | 1012.7 |
| 20260903232535 | 74 | 234 | 2.6 | 8.7 | 0.00 | 0.00 | 0.00 | 73 | 1012.7 |
| 20260903232036 | 74 | 290 | 4.3 | 8.7 | 0.00 | 0.00 | 0.00 | 73 | 1012.7 |
| 20260903231612 | 74 | 220 | 4.3 | 10.4 | 0.00 | 0.00 | 0.00 | 74 | 1012.7 |
| 20260903231034 | 74 | 203 | 5.2 | 10.4 | 0.00 | 0.00 | 0.00 | 74 | 1012.8 |
| 20260903230532 | 74 | 266 | 3.5 | 10.4 | 0.00 | 0.00 | 0.00 | 74 | 1012.7 |
| 20260903230114 | 75 | 244 | 4.3 | 10.4 | 0.00 | 0.00 | 0.00 | 74 | 1012.7 |
| 20260903225536 | 75 | 267 | 4.3 | 10.4 | 0.00 | 0.00 | 0.00 | 74 | 1012.7 |
| 20260903225038 | 75 | 267 | 4.3 | 8.7 | 0.00 | 0.00 | 0.00 | 75 | 1012.7 |
| 20260903224558 | 75 | 232 | 4.3 | 8.7 | 0.00 | 0.00 | 0.00 | 75 | 1012.7 |
| 20260903224039 | 75 | 295 | 3.5 | 9.6 | 0.00 | 0.00 | 0.00 | 74 | 1012.8 |
| 20260903223536 | 75 | 290 | 4.3 | 9.6 | 0.00 | 0.00 | 0.00 | 74 | 1012.9 |
| 20260903223106 | 75 | 318 | 3.5 | 8.7 | 0.00 | 0.00 | 0.00 | 75 | 1012.8 |
| 20260903222535 | 75 | 279 | 3.5 | 8.7 | 0.00 | 0.00 | 0.00 | 73 | 1012.9 |
| 20260903222037 | 76 | 290 | 3.5 | 8.7 | 0.00 | 0.00 | 0.00 | 74 | 1012.8 |
| 20260903221602 | 76 | 286 | 4.3 | 9.6 | 0.00 | 0.00 | 0.00 | 74 | 1012.9 |
| 20260903221036 | 76 | 271 | 3.5 | 9.6 | 0.00 | 0.00 | 0.00 | 73 | 1013.0 |
| 20260903220537 | 76 | 291 | 3.5 | 9.6 | 0.00 | 0.00 | 0.00 | 75 | 1013.1 |
| 20260903220108 | 75 | 221 | 4.3 | 10.4 | 0.00 | 0.00 | 0.00 | 75 | 1013.1 |
| 20260903215537 | 75 | 236 | 4.3 | 10.4 | 0.00 | 0.00 | 0.00 | 75 | 1013.2 |
| 20260903215033 | 76 | 319 | 5.2 | 9.6 | 0.00 | 0.00 | 0.00 | 74 | 1013.1 |
| 20260903214600 | 76 | 273 | 3.5 | 13.9 | 0.00 | 0.00 | 0.00 | 75 | 1013.2 |
| 20260903214036 | 75 | 296 | 5.2 | 13.9 | 0.00 | 0.00 | 0.00 | 75 | 1013.2 |
| 20260903213535 | 75 | 194 | 5.2 | 10.4 | 0.00 | 0.00 | 0.00 | 75 | 1013.3 |
| 20260903213056 | 75 | 296 | 5.2 | 10.4 | 0.00 | 0.00 | 0.00 | 75 | 1013.3 |
| 20260903212535 | 76 | 242 | 4.3 | 10.4 | 0.00 | 0.00 | 0.00 | 75 | 1013.3 |
| 20260903212036 | 76 | 250 | 3.5 | 10.4 | 0.00 | 0.00 | 0.00 | 76 | 1013.3 |
| 20260903211616 | 76 | 221 | 4.3 | 10.4 | 0.00 | 0.00 | 0.00 | 74 | 1013.4 |
| 20260903211036 | 76 | 219 | 4.3 | 9.6 | 0.00 | 0.00 | 0.00 | 74 | 1013.4 |
| 20260903210540 | 76 | 223 | 5.2 | 10.4 | 0.00 | 0.00 | 0.00 | 75 | 1013.4 |
| 20260903210101 | 76 | 184 | 5.2 | 10.4 | 0.00 | 0.00 | 0.00 | 74 | 1013.3 |
| 20260903205535 | 76 | 301 | 4.3 | 10.4 | 0.00 | 0.00 | 0.00 | 74 | 1013.4 |
| 20260903205032 | 76 | 207 | 3.5 | 9.6 | 0.00 | 0.00 | 0.00 | 75 | 1013.3 |
| 20260903204603 | 76 | 281 | 4.3 | 9.6 | 0.00 | 0.00 | 0.00 | 75 | 1013.3 |
| 20260903204034 | 76 | 284 | 4.3 | 9.6 | 0.00 | 0.00 | 0.00 | 75 | 1013.3 |
| 20260903203535 | 75 | 264 | 4.3 | 9.6 | 0.00 | 0.00 | 0.00 | 74 | 1013.4 |
| 20260903203055 | 76 | 329 | 3.5 | 9.6 | 0.00 | 0.00 | 0.00 | 74 | 1013.4 |
| 20260903202539 | 76 | 281 | 4.3 | 9.6 | 0.00 | 0.00 | 0.00 | 75 | 1013.4 |
| 20260903202037 | 76 | 250 | 3.5 | 8.7 | 0.00 | 0.00 | 0.00 | 74 | 1013.4 |
| 20260903201602 | 75 | 192 | 3.5 | 9.6 | 0.00 | 0.00 | 0.00 | 75 | 1013.4 |
| 20260903201039 | 75 | 198 | 4.3 | 9.6 | 0.00 | 0.00 | 0.00 | 74 | 1013.4 |
| 20260903200535 | 75 | 283 | 3.5 | 9.6 | 0.00 | 0.00 | 0.00 | 75 | 1013.5 |
| 20260903200107 | 75 | 285 | 4.3 | 9.6 | 0.00 | 0.00 | 0.00 | 76 | 1013.6 |
| 20260903195534 | 75 | 237 | 3.5 | 8.7 | 0.00 | 0.00 | 0.00 | 76 | 1013.6 |
| 20260903195055 | 75 | 250 | 3.5 | 8.7 | 0.00 | 0.00 | 0.00 | 76 | 1013.6 |
| 20260903194555 | 74 | 227 | 3.5 | 7.8 | 0.00 | 0.00 | 0.00 | 77 | 1013.6 |
| 20260903194036 | 74 | 278 | 4.3 | 8.7 | 0.00 | 0.00 | 0.00 | 77 | 1013.7 |
| 20260903193534 | 74 | 270 | 4.3 | 8.7 | 0.00 | 0.00 | 0.00 | 78 | 1013.8 |
| 20260903193105 | 74 | 277 | 4.3 | 8.7 | 0.00 | 0.00 | 0.00 | 78 | 1013.8 |
| 20260903192535 | 74 | 240 | 3.5 | 8.7 | 0.00 | 0.00 | 0.00 | 77 | 1013.9 |
| 20260903192035 | 74 | 279 | 3.5 | 8.7 | 0.00 | 0.00 | 0.00 | 77 | 1013.9 |
| 20260903191603 | 74 | 242 | 3.5 | 8.7 | 0.00 | 0.00 | 0.00 | 78 | 1013.9 |
| 20260903191032 | 74 | 161 | 3.5 | 8.7 | 0.00 | 0.00 | 0.00 | 78 | 1014.0 |
| 20260903190535 | 74 | 267 | 3.5 | 8.7 | 0.00 | 0.00 | 0.00 | 77 | 1014.0 |
| 20260903190103 | 73 | 207 | 4.3 | 8.7 | 0.00 | 0.00 | 0.00 | 76 | 1014.1 |
| 20260903185534 | 74 | 267 | 4.3 | 8.7 | 0.00 | 0.00 | 0.00 | 77 | 1014.2 |
| 20260903185036 | 74 | 268 | 4.3 | 8.7 | 0.00 | 0.00 | 0.00 | 76 | 1014.3 |
| 20260903184554 | 74 | 223 | 4.3 | 9.6 | 0.00 | 0.00 | 0.00 | 76 | 1014.4 |
| 20260903184033 | 73 | 315 | 3.5 | 10.4 | 0.00 | 0.00 | 0.00 | 76 | 1014.5 |
| 20260903183536 | 73 | 221 | 4.3 | 10.4 | 0.00 | 0.00 | 0.00 | 76 | 1014.6 |
| 20260903183121 | 74 | 274 | 4.3 | 9.6 | 0.00 | 0.00 | 0.00 | 75 | 1014.6 |
| 20260903182532 | 74 | 292 | 3.5 | 8.7 | 0.00 | 0.00 | 0.00 | 75 | 1014.6 |
| 20260903182032 | 73 | 257 | 4.3 | 7.8 | 0.00 | 0.00 | 0.00 | 75 | 1014.6 |
| 20260903181616 | 73 | 278 | 4.3 | 8.7 | 0.00 | 0.00 | 0.00 | 74 | 1014.6 |
| 20260903181038 | 73 | 244 | 2.6 | 8.7 | 0.00 | 0.00 | 0.00 | 75 | 1014.6 |
| 20260903180532 | 73 | 256 | 4.3 | 8.7 | 0.00 | 0.00 | 0.00 | 74 | 1014.6 |
| 20260903180105 | 73 | 234 | 2.6 | 9.6 | 0.00 | 0.00 | 0.00 | 74 | 1014.6 |
| 20260903175532 | 73 | 246 | 3.5 | 9.6 | 0.00 | 0.00 | 0.00 | 75 | 1014.6 |
| 20260903175039 | 73 | 225 | 4.3 | 9.6 | 0.00 | 0.00 | 0.00 | 75 | 1014.6 |
| 20260903174604 | 73 | 213 | 2.6 | 7.8 | 0.00 | 0.00 | 0.00 | 75 | 1014.7 |
| 20260903174034 | 73 | 245 | 2.6 | 7.8 | 0.00 | 0.00 | 0.00 | 77 | 1014.6 |
| 20260903173536 | 73 | 207 | 3.5 | 7.8 | 0.00 | 0.00 | 0.00 | 77 | 1014.6 |
| 20260903173110 | 72 | 226 | 2.6 | 6.1 | 0.00 | 0.00 | 0.00 | 77 | 1014.6 |
| 20260903172532 | 72 | 284 | 1.7 | 6.1 | 0.00 | 0.00 | 0.00 | 77 | 1014.5 |
| 20260903172031 | 72 | 290 | 2.6 | 6.1 | 0.00 | 0.00 | 0.00 | 77 | 1014.5 |
| 20260903171602 | 72 | 219 | 1.7 | 5.2 | 0.00 | 0.00 | 0.00 | 77 | 1014.5 |
| 20260903171032 | 71 | 233 | 1.7 | 5.2 | 0.00 | 0.00 | 0.00 | 78 | 1014.5 |
| 20260903170533 | 71 | 218 | 0.0 | 3.5 | 0.00 | 0.00 | 0.00 | 77 | 1014.5 |
| 20260903170100 | 70 | 234 | 0.9 | 4.3 | 0.00 | 0.00 | 0.00 | 79 | 1014.5 |
| 20260903165532 | 69 | 201 | 0.9 | 4.3 | 0.00 | 0.00 | 0.00 | 80 | 1014.6 |
| 20260903165040 | 69 | 241 | 0.9 | 3.5 | 0.00 | 0.00 | 0.00 | 81 | 1014.5 |
| 20260903164602 | 68 | 236 | 0.0 | 2.6 | 0.00 | 0.00 | 0.00 | 82 | 1014.6 |
| 20260903164036 | 68 | 0 | 0.0 | 2.6 | 0.00 | 0.00 | 0.00 | 83 | 1014.6 |
| 20260903163533 | 68 | 0 | 0.9 | 4.3 | 0.00 | 0.00 | 0.00 | 83 | 1014.6 |
| 20260903163102 | 68 | 0 | 0.9 | 4.3 | 0.00 | 0.00 | 0.00 | 84 | 1014.6 |
| 20260903162535 | 67 | 0 | 0.9 | 2.6 | 0.00 | 0.00 | 0.00 | 85 | 1014.7 |
| 20260903162032 | 67 | 0 | 0.0 | 2.6 | 0.00 | 0.00 | 0.00 | 85 | 1014.6 |
| 20260903161614 | 67 | 219 | 0.0 | 2.6 | 0.00 | 0.00 | 0.00 | 86 | 1014.6 |
| 20260903161039 | 66 | 204 | 0.0 | 1.7 | 0.00 | 0.00 | 0.00 | 86 | 1014.6 |
| 20260903160533 | 66 | 0 | 0.0 | 2.6 | 0.00 | 0.00 | 0.00 | 87 | 1014.6 |
| 20260903155536 | 66 | 227 | 0.9 | 2.6 | 0.00 | 0.00 | 0.00 | 87 | 1014.7 |
| 20260903155032 | 65 | 0 | 0.0 | 1.7 | 0.00 | 0.00 | 0.00 | 87 | 1014.7 |
| 20260903154602 | 65 | 0 | 0.0 | 1.7 | 0.00 | 0.00 | 0.00 | 88 | 1014.8 |
| 20260903154037 | 65 | 0 | 0.0 | 0.9 | 0.00 | 0.00 | 0.00 | 88 | 1014.8 |
| 20260903153535 | 64 | 0 | 0.0 | 0.9 | 0.00 | 0.00 | 0.00 | 88 | 1014.9 |
| 20260903153100 | 64 | 0 | 0.0 | 0.9 | 0.00 | 0.00 | 0.00 | 88 | 1014.8 |
| 20260903152535 | 64 | 0 | 0.0 | 0.9 | 0.00 | 0.00 | 0.00 | 88 | 1014.8 |
| 20260903152036 | 64 | 0 | 0.0 | 0.9 | 0.00 | 0.00 | 0.00 | 88 | 1014.7 |
| 20260903151604 | 64 | 0 | 0.0 | 0.9 | 0.00 | 0.00 | 0.00 | 89 | 1014.8 |
| 20260903151036 | 63 | 0 | 0.0 | 0.9 | 0.00 | 0.00 | 0.00 | 89 | 1014.8 |
| 20260903150535 | 63 | 0 | 0.0 | 0.9 | 0.00 | 0.00 | 0.00 | 89 | 1014.7 |
| 20260903150054 | 63 | 0 | 0.0 | 0.9 | 0.00 | 0.00 | 0.00 | 89 | 1014.7 |
| 20260903145531 | 63 | 0 | 0.0 | 0.9 | 0.00 | 0.00 | 0.00 | 89 | 1014.8 |
| 20260903145031 | 63 | 0 | 0.0 | 0.9 | 0.00 | 0.00 | 0.00 | 89 | 1014.7 |
| 20260903144559 | 63 | 0 | 0.0 | 0.9 | 0.00 | 0.00 | 0.00 | 89 | 1014.7 |
| 20260903144036 | 62 | 0 | 0.0 | 0.9 | 0.00 | 0.00 | 0.00 | 89 | 1014.7 |
| 20260903143532 | 62 | 0 | 0.0 | 0.9 | 0.00 | 0.00 | 0.00 | 89 | 1014.7 |
| 20260903143101 | 62 | 0 | 0.0 | 0.9 | 0.00 | 0.00 | 0.00 | 89 | 1014.6 |
| 20260903142539 | 62 | 0 | 0.0 | 0.9 | 0.00 | 0.00 | 0.00 | 89 | 1014.5 |
| 20260903142035 | 62 | 0 | 0.0 | 0.9 | 0.00 | 0.00 | 0.00 | 89 | 1014.5 |
| 20260903141600 | 62 | 0 | 0.0 | 0.9 | 0.00 | 0.00 | 0.00 | 89 | 1014.5 |
| 20260903141037 | 62 | 0 | 0.0 | 0.9 | 0.00 | 0.00 | 0.00 | 89 | 1014.4 |
| 20260903140533 | 62 | 0 | 0.0 | 0.9 | 0.00 | 0.00 | 0.00 | 89 | 1014.5 |
| 20260903140109 | 61 | 0 | 0.0 | 0.9 | 0.00 | 0.00 | 0.00 | 89 | 1014.3 |
| 20260903135535 | 62 | 155 | 0.0 | 0.9 | 0.00 | 0.00 | 0.00 | 89 | 1014.2 |
| 20260903135035 | 61 | 0 | 0.0 | 0.9 | 0.00 | 0.00 | 0.00 | 89 | 1014.2 |
| 20260903134605 | 61 | 0 | 0.0 | 0.0 | 0.00 | 0.00 | 0.00 | 89 | 1014.1 |
| 20260903134031 | 61 | 0 | 0.0 | 0.9 | 0.00 | 0.00 | 0.00 | 89 | 1014.1 |
| 20260903133532 | 61 | 0 | 0.0 | 0.9 | 0.00 | 0.00 | 0.00 | 89 | 1014.1 |
| 20260903133103 | 61 | 0 | 0.0 | 0.9 | 0.00 | 0.00 | 0.00 | 88 | 1014.1 |
| 20260903132533 | 62 | 0 | 0.0 | 0.9 | 0.00 | 0.00 | 0.00 | 88 | 1014.0 |
| 20260903132032 | 62 | 0 | 0.0 | 0.9 | 0.00 | 0.00 | 0.00 | 88 | 1014.0 |
| 20260903131601 | 62 | 0 | 0.0 | 0.9 | 0.00 | 0.00 | 0.00 | 88 | 1013.9 |
| 20260903131033 | 62 | 0 | 0.0 | 0.9 | 0.00 | 0.00 | 0.00 | 88 | 1014.0 |
| 20260903130536 | 62 | 0 | 0.0 | 0.9 | 0.00 | 0.00 | 0.00 | 88 | 1014.0 |
| 20260903125532 | 62 | 0 | 0.0 | 0.9 | 0.00 | 0.00 | 0.00 | 88 | 1014.0 |
| 20260903125032 | 62 | 0 | 0.0 | 0.9 | 0.00 | 0.00 | 0.00 | 88 | 1014.0 |
| 20260903124605 | 62 | 0 | 0.0 | 0.9 | 0.00 | 0.00 | 0.00 | 88 | 1014.0 |
| 20260903124031 | 62 | 0 | 0.0 | 0.9 | 0.00 | 0.00 | 0.00 | 88 | 1014.0 |
| 20260903123531 | 62 | 0 | 0.0 | 0.9 | 0.00 | 0.00 | 0.00 | 88 | 1014.0 |
| 20260903123103 | 62 | 0 | 0.0 | 0.9 | 0.00 | 0.00 | 0.00 | 88 | 1013.8 |
| 20260903122535 | 62 | 0 | 0.0 | 0.9 | 0.00 | 0.00 | 0.00 | 88 | 1013.8 |
| 20260903122032 | 62 | 0 | 0.0 | 0.9 | 0.00 | 0.00 | 0.00 | 88 | 1013.8 |
| 20260903121601 | 62 | 0 | 0.0 | 0.9 | 0.00 | 0.00 | 0.00 | 88 | 1013.8 |
| 20260903121038 | 62 | 0 | 0.0 | 0.9 | 0.00 | 0.00 | 0.00 | 88 | 1013.8 |
| 20260903120535 | 62 | 0 | 0.0 | 0.9 | 0.00 | 0.00 | 0.00 | 88 | 1013.8 |
| 20260903120052 | 62 | 0 | 0.0 | 0.9 | 0.00 | 0.00 | 0.00 | 88 | 1013.8 |
| 20260903115532 | 62 | 0 | 0.0 | 0.9 | 0.00 | 0.00 | 0.00 | 88 | 1013.9 |
| 20260903115031 | 62 | 0 | 0.0 | 0.9 | 0.00 | 0.00 | 0.00 | 88 | 1013.9 |
| 20260903114553 | 62 | 0 | 0.0 | 0.9 | 0.00 | 0.00 | 0.00 | 88 | 1014.0 |
| 20260903114035 | 62 | 0 | 0.0 | 0.9 | 0.00 | 0.00 | 0.00 | 88 | 1014.0 |
| 20260903113531 | 62 | 0 | 0.0 | 0.0 | 0.00 | 0.00 | 0.00 | 88 | 1013.9 |
| 20260903113100 | 62 | 0 | 0.0 | 0.0 | 0.00 | 0.00 | 0.00 | 88 | 1014.0 |
| 20260903112535 | 62 | 0 | 0.0 | 0.0 | 0.00 | 0.00 | 0.00 | 88 | 1013.9 |
| 20260903112034 | 62 | 0 | 0.0 | 0.0 | 0.00 | 0.00 | 0.00 | 88 | 1013.9 |
| 20260903111557 | 63 | 0 | 0.0 | 0.0 | 0.00 | 0.00 | 0.00 | 88 | 1014.0 |
| 20260903111032 | 63 | 0 | 0.0 | 0.0 | 0.00 | 0.00 | 0.00 | 88 | 1013.9 |
| 20260903110535 | 63 | 0 | 0.0 | 0.0 | 0.00 | 0.00 | 0.00 | 88 | 1014.0 |
| 20260903110053 | 63 | 0 | 0.0 | 0.0 | 0.00 | 0.00 | 0.00 | 88 | 1014.0 |
| 20260903105532 | 63 | 0 | 0.0 | 0.0 | 0.00 | 0.00 | 0.00 | 88 | 1014.0 |
| 20260903105032 | 63 | 0 | 0.0 | 0.0 | 0.00 | 0.00 | 0.00 | 88 | 1014.0 |
| 20260903104551 | 63 | 0 | 0.0 | 0.0 | 0.00 | 0.00 | 0.00 | 87 | 1014.1 |
| 20260903104035 | 63 | 0 | 0.0 | 0.0 | 0.00 | 0.00 | 0.00 | 87 | 1014.1 |
| 20260903103531 | 63 | 0 | 0.0 | 0.0 | 0.00 | 0.00 | 0.00 | 87 | 1014.1 |
| 20260903103101 | 63 | 0 | 0.0 | 0.0 | 0.00 | 0.00 | 0.00 | 87 | 1014.1 |
| 20260903102530 | 63 | 0 | 0.0 | 0.0 | 0.00 | 0.00 | 0.00 | 88 | 1014.2 |
| 20260903102032 | 63 | 0 | 0.0 | 0.0 | 0.00 | 0.00 | 0.00 | 87 | 1014.2 |
| 20260903101558 | 63 | 0 | 0.0 | 0.0 | 0.00 | 0.00 | 0.00 | 87 | 1014.3 |
| 20260903101032 | 63 | 0 | 0.0 | 0.0 | 0.00 | 0.00 | 0.00 | 87 | 1014.3 |
| 20260903100532 | 63 | 0 | 0.0 | 0.9 | 0.00 | 0.00 | 0.00 | 87 | 1014.4 |
| 20260903100054 | 63 | 0 | 0.0 | 0.9 | 0.00 | 0.00 | 0.00 | 87 | 1014.4 |
| 20260903095535 | 63 | 0 | 0.0 | 0.9 | 0.00 | 0.00 | 0.00 | 87 | 1014.5 |
| 20260903095034 | 63 | 0 | 0.0 | 0.9 | 0.00 | 0.00 | 0.00 | 87 | 1014.5 |
| 20260903094604 | 63 | 0 | 0.0 | 0.9 | 0.00 | 0.00 | 0.00 | 87 | 1014.5 |
| 20260903094033 | 63 | 0 | 0.0 | 0.9 | 0.00 | 0.00 | 0.00 | 87 | 1014.6 |
| 20260903093536 | 64 | 0 | 0.0 | 0.9 | 0.00 | 0.00 | 0.00 | 87 | 1014.6 |
| 20260903093100 | 64 | 0 | 0.0 | 0.9 | 0.00 | 0.00 | 0.00 | 87 | 1014.7 |
| 20260903092532 | 64 | 0 | 0.0 | 0.0 | 0.00 | 0.00 | 0.00 | 87 | 1014.7 |
| 20260903092033 | 64 | 0 | 0.0 | 0.0 | 0.00 | 0.00 | 0.00 | 87 | 1014.7 |
| 20260903091600 | 64 | 0 | 0.0 | 0.9 | 0.00 | 0.00 | 0.00 | 87 | 1014.8 |
| 20260903091036 | 64 | 0 | 0.0 | 0.9 | 0.00 | 0.00 | 0.00 | 87 | 1014.7 |
| 20260903090535 | 64 | 0 | 0.0 | 0.9 | 0.00 | 0.00 | 0.00 | 87 | 1014.7 |
| 20260903090054 | 64 | 0 | 0.0 | 0.9 | 0.00 | 0.00 | 0.00 | 87 | 1014.7 |
| 20260903085531 | 64 | 0 | 0.0 | 0.9 | 0.00 | 0.00 | 0.00 | 87 | 1014.8 |
| 20260903085032 | 64 | 0 | 0.0 | 0.9 | 0.00 | 0.00 | 0.00 | 87 | 1014.9 |
| 20260903084554 | 64 | 0 | 0.0 | 0.9 | 0.00 | 0.00 | 0.00 | 87 | 1014.9 |
| 20260903084031 | 64 | 0 | 0.0 | 0.0 | 0.00 | 0.00 | 0.00 | 86 | 1014.9 |
| 20260903083532 | 64 | 0 | 0.0 | 0.0 | 0.00 | 0.00 | 0.00 | 87 | 1014.9 |
| 20260903083057 | 64 | 0 | 0.0 | 0.9 | 0.00 | 0.00 | 0.00 | 86 | 1015.0 |
| 20260903082535 | 64 | 0 | 0.0 | 0.9 | 0.00 | 0.00 | 0.00 | 86 | 1015.0 |
| 20260903082031 | 64 | 0 | 0.0 | 0.9 | 0.00 | 0.00 | 0.00 | 86 | 1015.1 |
| 20260903081556 | 64 | 0 | 0.0 | 0.9 | 0.00 | 0.00 | 0.00 | 86 | 1015.1 |
| 20260903081034 | 64 | 0 | 0.0 | 0.0 | 0.00 | 0.00 | 0.00 | 86 | 1015.1 |
| 20260903080535 | 64 | 0 | 0.0 | 0.0 | 0.00 | 0.00 | 0.00 | 86 | 1015.1 |
| 20260903080100 | 64 | 0 | 0.0 | 0.0 | 0.00 | 0.00 | 0.00 | 86 | 1015.1 |
| 20260903075532 | 64 | 0 | 0.0 | 0.9 | 0.00 | 0.00 | 0.00 | 86 | 1015.1 |
| 20260903075034 | 64 | 0 | 0.0 | 0.9 | 0.00 | 0.00 | 0.00 | 86 | 1015.2 |
| 20260903074603 | 65 | 0 | 0.0 | 0.9 | 0.00 | 0.00 | 0.00 | 86 | 1015.2 |
| 20260903074031 | 65 | 0 | 0.0 | 0.0 | 0.00 | 0.00 | 0.00 | 86 | 1015.2 |
| 20260903073536 | 65 | 0 | 0.0 | 0.0 | 0.00 | 0.00 | 0.00 | 86 | 1015.2 |
| 20260903073110 | 65 | 0 | 0.0 | 0.0 | 0.00 | 0.00 | 0.00 | 85 | 1015.1 |
| 20260903072535 | 65 | 0 | 0.0 | 0.0 | 0.00 | 0.00 | 0.00 | 85 | 1015.2 |
| 20260903072031 | 65 | 0 | 0.0 | 0.0 | 0.00 | 0.00 | 0.00 | 85 | 1015.1 |
| 20260903071559 | 65 | 0 | 0.0 | 0.0 | 0.00 | 0.00 | 0.00 | 85 | 1015.2 |
| 20260903071032 | 65 | 0 | 0.0 | 0.0 | 0.00 | 0.00 | 0.00 | 85 | 1015.2 |
| 20260903070536 | 65 | 0 | 0.0 | 0.9 | 0.00 | 0.00 | 0.00 | 85 | 1015.2 |
| 20260903070058 | 65 | 0 | 0.0 | 0.9 | 0.00 | 0.00 | 0.00 | 85 | 1015.2 |
| 20260903065532 | 65 | 0 | 0.0 | 0.0 | 0.00 | 0.00 | 0.00 | 85 | 1015.2 |
| 20260903065031 | 65 | 0 | 0.0 | 0.0 | 0.00 | 0.00 | 0.00 | 85 | 1015.1 |
| 20260903064603 | 65 | 0 | 0.0 | 0.9 | 0.00 | 0.00 | 0.00 | 84 | 1015.2 |
| 20260903064031 | 66 | 0 | 0.0 | 0.9 | 0.00 | 0.00 | 0.00 | 84 | 1015.1 |
| 20260903063532 | 66 | 0 | 0.0 | 0.9 | 0.00 | 0.00 | 0.00 | 84 | 1015.1 |
| 20260903063125 | 66 | 0 | 0.0 | 0.9 | 0.00 | 0.00 | 0.00 | 84 | 1015.2 |